Change the Weather History Date:

Thursday, March 20, 2014

  Actual Average Record
Temperature  
Mean Temperature 40 °F -  
Max Temperature 50 °F 43 °F 79 °F (2012)
Min Temperature 32 °F 26 °F 14 °F (2015)
Degree Days  
Heating Degree Days 24    
Moisture  
Dew Point 33 °F    
Average Humidity 92    
Maximum Humidity 100    
Minimum Humidity 48    
Precipitation  
Precipitation 0.47 in - - ()
Sea Level Pressure  
Sea Level Pressure 29.78 in    
Wind  
Wind Speed 6 mph (NNW)    
Max Wind Speed 21 mph    
Max Gust Speed 26 mph    
Visibility 7 miles    
Events Rain    
Averages and records for this station are not official NWS values.
T = Trace of Precipitation, MM = Missing Value Source: NWS Daily Summary

Daily Weather History Graph

Daily Weather History Graph

Search for Another Location

Airport or City:

Trip Planner

Search our weather history database for the weather conditions in past years. The results will help you decide how hot, cold, wet, or windy it might be!

Date:

Astronomy

Mar. 20, 2014 Rise Set
Actual Time 6:53 AM EDT 7:02 PM EDT
Civil Twilight 6:25 AM EDT 7:30 PM EDT
Nautical Twilight 5:52 AM EDT 8:03 PM EDT
Astronomical Twilight 5:19 AM EDT 8:36 PM EDT
Moon 11:24 PM EDT (3/20) 8:53 AM EDT (3/20)
Length of Visible Light 13h 04m
Length of Day
12h 08m
Waning Gibbous, 84% of the Moon is Illuminated
Mar 20
Waning Gibbous
Mar 23
Last Quarter
Mar 30
New
Apr 7
First Quarter
Apr 15
Full

Hourly Weather History & Observations

Time (EDT) Temp. Windchill Dew Point Humidity Pressure Visibility Wind Dir Wind Speed Gust Speed Precip Events Conditions
12:01 AM 32.0 °F 26.4 °F 32.0 °F 100% 29.95 in 4.0 mi Variable 5.8 mph - N/A Rain Rain
12:15 AM 32.0 °F 26.4 °F 32.0 °F 100% 29.94 in 4.0 mi NNE 5.8 mph - N/A Rain Rain
12:20 AM 32.0 °F 26.4 °F 32.0 °F 100% 29.92 in 5.0 mi ENE 5.8 mph - N/A Rain Light Rain
12:56 AM 32.0 °F 28.7 °F 32.0 °F 100% 29.91 in 6.0 mi North 3.5 mph - N/A Rain Rain
12:57 AM 32.0 °F 27.5 °F 32.0 °F 100% 29.91 in 5.0 mi North 4.6 mph - N/A Rain Rain
12:58 AM 32.0 °F 27.5 °F 32.0 °F 100% 29.93 in 5.0 mi North 4.6 mph - 0.19 in Rain Rain
1:04 AM 32.0 °F 25.6 °F 32.0 °F 100% 29.89 in 4.0 mi NNE 6.9 mph - N/A Rain Rain
1:11 AM 32.0 °F 24.8 °F 32.0 °F 100% 29.88 in 4.0 mi NE 8.1 mph - N/A Rain Rain
1:12 AM 32.0 °F 24.8 °F 32.0 °F 100% 29.88 in 4.0 mi NE 8.1 mph - N/A Rain Rain
1:25 AM 32.0 °F 25.6 °F 32.0 °F 100% 29.86 in 5.0 mi NE 6.9 mph - N/A Rain Light Rain
1:41 AM 32.0 °F 24.8 °F 32.0 °F 100% 29.86 in 5.0 mi WNW 8.1 mph - N/A Rain Rain
1:43 AM 32.0 °F 26.4 °F 32.0 °F 100% 29.86 in 5.0 mi NNW 5.8 mph - N/A Rain Rain
1:57 AM 32.0 °F 25.6 °F 32.0 °F 100% 29.84 in 5.0 mi NNW 6.9 mph - N/A Rain Rain
1:58 AM 32.0 °F 24.8 °F 32.0 °F 100% 29.87 in 6.0 mi NNW 8.1 mph - 0.20 in Rain Rain
2:01 AM 32.0 °F 25.6 °F 32.0 °F 100% 29.84 in 6.0 mi NNW 6.9 mph - N/A Rain Rain
2:09 AM 32.0 °F 25.6 °F 32.0 °F 100% 29.83 in 8.0 mi NNW 6.9 mph - N/A Rain Rain
2:15 AM 32.0 °F 25.6 °F 32.0 °F 100% 29.83 in 6.0 mi NNW 6.9 mph - N/A Rain Rain
2:19 AM 32.0 °F 25.6 °F 32.0 °F 100% 29.83 in 6.0 mi NNW 6.9 mph - N/A Rain Rain
2:26 AM 33.8 °F 27.7 °F 32.0 °F 93% 29.83 in 6.0 mi NNW 6.9 mph - N/A Rain Rain
2:36 AM 33.8 °F 28.6 °F 32.0 °F 93% 29.82 in 8.0 mi North 5.8 mph - N/A Rain Light Rain
2:44 AM 32.0 °F 26.4 °F 32.0 °F 100% 29.81 in 7.0 mi NNE 5.8 mph - N/A Rain Light Rain
2:54 AM 32.0 °F 26.4 °F 32.0 °F 100% 29.79 in 9.0 mi NE 5.8 mph - N/A   Overcast
2:58 AM 33.4 °F 28.1 °F 33.3 °F 99% 29.82 in 10.0 mi NNE 5.8 mph - 0.07 in   Overcast
3:00 AM 32.0 °F 27.5 °F 32.0 °F 100% 29.79 in 10.0 mi NNE 4.6 mph - N/A   Overcast
3:02 AM 32.0 °F 27.5 °F 32.0 °F 100% 29.79 in 10.0 mi North 4.6 mph - N/A   Overcast
3:07 AM 32.0 °F 27.5 °F 32.0 °F 100% 29.79 in 10.0 mi NNE 4.6 mph - N/A   Overcast
3:08 AM 32.0 °F 27.5 °F 32.0 °F 100% 29.79 in 10.0 mi NNE 4.6 mph - N/A   Overcast
3:14 AM 32.0 °F 26.4 °F 32.0 °F 100% 29.78 in 10.0 mi North 5.8 mph - N/A   Overcast
3:27 AM 32.0 °F 26.4 °F 32.0 °F 100% 29.78 in 10.0 mi NNE 5.8 mph - N/A   Overcast
3:54 AM 32.0 °F 26.4 °F 32.0 °F 100% 29.76 in 8.0 mi Variable 5.8 mph - N/A   Overcast
3:57 AM 32.0 °F 27.5 °F 32.0 °F 100% 29.76 in 9.0 mi NNW 4.6 mph - N/A   Overcast
3:58 AM 32.0 °F 26.4 °F 32.0 °F 100% 29.78 in 9.0 mi NNW 5.8 mph - N/A   Overcast
4:03 AM 32.0 °F 26.4 °F 32.0 °F 100% 29.76 in 10.0 mi North 5.8 mph - N/A   Overcast
4:07 AM 32.0 °F 27.5 °F 32.0 °F 100% 29.75 in 10.0 mi North 4.6 mph - N/A   Overcast
4:12 AM 32.0 °F 27.5 °F 32.0 °F 100% 29.75 in 8.0 mi North 4.6 mph - N/A   Overcast
4:14 AM 32.0 °F 26.4 °F 32.0 °F 100% 29.75 in 6.0 mi NNE 5.8 mph - N/A   Overcast
4:15 AM 32.0 °F 26.4 °F 32.0 °F 100% 29.74 in 6.0 mi NNE 5.8 mph - N/A   Light Drizzle
4:25 AM 32.0 °F 24.8 °F 32.0 °F 100% 29.72 in 4.0 mi NE 8.1 mph - N/A   Overcast
4:58 AM 33.4 °F - 33.1 °F 99% 29.73 in 9.0 mi North 2.3 mph - 0.01 in   Overcast
5:39 AM 33.8 °F 28.6 °F 33.8 °F 100% 29.72 in 10.0 mi NNW 5.8 mph - N/A   Overcast
5:58 AM 34.0 °F 29.8 °F 33.8 °F 99% 29.73 in 8.0 mi North 4.6 mph - N/A   Overcast
6:06 AM 33.8 °F 29.6 °F 32.0 °F 93% 29.71 in 5.0 mi North 4.6 mph - N/A   Overcast
6:58 AM 33.8 °F 29.6 °F 33.6 °F 99% 29.73 in 4.0 mi NNW 4.6 mph - N/A   Overcast
7:13 AM 33.8 °F - 32.0 °F 93% 29.70 in 1.2 mi NNW 2.3 mph - N/A   Overcast
7:38 AM 33.8 °F - 32.0 °F 93% 29.69 in 2.0 mi Calm Calm - N/A   Overcast
7:58 AM 34.0 °F - 33.8 °F 99% 29.70 in 3.0 mi Calm Calm - N/A   Overcast
8:58 AM 35.1 °F 32.2 °F 34.9 °F 99% 29.70 in 3.0 mi WNW 3.5 mph - N/A   Overcast
9:37 AM 35.6 °F - 35.6 °F 100% 29.69 in 4.0 mi Calm Calm - N/A   Overcast
9:58 AM 36.1 °F 33.5 °F 35.8 °F 99% 29.72 in 5.0 mi SW 3.5 mph - N/A   Overcast
10:17 AM 35.6 °F - 35.6 °F 100% 29.69 in 7.0 mi SW 2.3 mph - N/A   Mostly Cloudy
10:46 AM 37.4 °F 34.9 °F 37.4 °F 100% 29.69 in 9.0 mi SSW 3.5 mph - N/A   Mostly Cloudy
10:58 AM 37.6 °F 35.1 °F 37.2 °F 99% 29.71 in 8.0 mi SSW 3.5 mph - N/A   Mostly Cloudy
11:58 AM 42.1 °F 37.7 °F 41.9 °F 99% 29.70 in 10.0 mi SW 6.9 mph - N/A   Mostly Cloudy
12:58 PM 45.3 °F 39.0 °F 38.3 °F 76% 29.68 in 10.0 mi West 13.8 mph 21.9 mph N/A   Overcast
1:58 PM 49.5 °F - 35.1 °F 58% 29.68 in 10.0 mi WNW 13.8 mph - N/A   Mostly Cloudy
2:58 PM 47.1 °F - 30.9 °F 53% 29.68 in 10.0 mi West 20.7 mph 26.5 mph 0.00 in   Mostly Cloudy
3:58 PM 49.8 °F - 30.6 °F 48% 29.68 in 10.0 mi WNW 12.7 mph 18.4 mph N/A   Mostly Cloudy
4:58 PM 48.2 °F - 32.5 °F 55% 29.70 in 10.0 mi NW 16.1 mph - N/A   Mostly Cloudy
5:49 PM 44.6 °F 36.4 °F 32.0 °F 61% 29.70 in 10.0 mi NNW 20.7 mph 25.3 mph N/A   Mostly Cloudy
5:58 PM 42.8 °F 35.4 °F 35.6 °F 76% 29.75 in 10.0 mi NW 15.0 mph - N/A   Mostly Cloudy
6:58 PM 41.2 °F 36.6 °F 33.3 °F 73% 29.75 in 10.0 mi West 6.9 mph - N/A   Mostly Cloudy
7:58 PM 40.5 °F 38.4 °F 32.7 °F 74% 29.78 in 10.0 mi West 3.5 mph - N/A   Mostly Cloudy
8:58 PM 38.3 °F - 34.0 °F 84% 29.78 in 10.0 mi NW 1.2 mph - N/A   Overcast
9:58 PM 39.4 °F 35.2 °F 29.3 °F 67% 29.80 in 10.0 mi West 5.8 mph - N/A   Overcast
10:58 PM 39.4 °F 33.2 °F 24.8 °F 56% 29.81 in 10.0 mi West 9.2 mph - N/A   Scattered Clouds
11:58 PM 38.5 °F 28.9 °F 22.1 °F 52% 29.81 in 10.0 mi West 18.4 mph 26.5 mph N/A   Scattered Clouds